Wind_Speed
14 13 11 11 10 9 8 9 10 11 11 11 13 14 15 16 17 17 16 16 14 14 14 14 13 13 12 11 10 9 8 7 7 7 6 6 5 5 5 4 4 4 4
14 14 13 13 12 11 11 11 12 13 13 13 14 14 15 16 16 17 17 17 16 15 15 15 15 14 13 12 11 10 10 9 8 8 8 7 7 7 6 6 6 6 5
15 15 14 14 13 13 13 14 14 13 14 14 15 16 15 16 16 17 17 18 17 16 16 17 16 15 15 13 12 11 11 11 10 10 9 9 9 8 8 8 7 7 7
16 15 15 15 14 14 15 15 14 13 14 15 16 16 15 16 18 18 18 18 17 17 17 18 18 17 16 15 14 13 12 12 12 11 11 11 10 10 9 9 9 9 9
16 16 16 15 15 15 15 14 14 14 15 15 16 16 17 17 18 19 19 18 18 18 18 18 19 18 18 17 16 15 14 13 13 13 12 12 12 11 11 10 10 10 10
15 15 14 15 15 15 15 15 15 15 16 17 16 16 17 17 19 20 21 20 19 19 19 19 20 20 19 19 18 18 16 15 14 14 14 13 13 13 12 12 11 12 12
15 14 15 15 15 15 15 15 16 16 17 17 17 16 17 17 19 20 21 21 20 20 20 19 20 20 20 20 20 19 18 17 16 16 16 16 15 15 14 14 14 13 13
14 15 15 15 14 15 15 15 17 17 16 15 15 15 17 17 18 19 21 22 22 21 20 21 21 21 21 20 20 21 20 19 18 18 17 17 17 17 16 16 16 16 15
14 14 14 14 14 15 15 15 16 16 15 14 14 15 17 18 19 20 21 22 22 22 21 21 22 23 22 22 21 21 21 20 19 19 19 19 19 18 18 18 17 17 17
14 14 14 14 14 13 14 15 15 15 14 14 15 14 16 18 19 20 20 21 22 22 22 22 21 22 22 22 22 21 21 21 21 20 20 20 20 19 19 19 19 19 19
14 14 13 13 12 13 13 14 15 15 14 15 15 14 15 16 17 18 19 21 22 22 22 21 21 21 21 22 22 22 22 22 22 22 22 21 21 21 22 22 22 22 21
12 12 12 12 12 12 12 13 13 13 14 15 16 16 15 16 17 17 18 20 20 20 21 21 21 21 22 22 22 22 22 22 23 23 22 23 23 23 23 23 24 23 22
12 11 11 12 12 12 12 12 13 13 14 14 15 16 16 17 17 18 19 19 20 20 21 20 21 22 22 22 22 23 23 23 23 24 24 23 23 24 24 23 24 24 24
12 12 11 11 11 11 11 11 12 12 11 13 14 15 15 15 16 16 17 18 18 19 20 20 20 21 22 22 23 24 24 24 24 24 25 25 24 25 24 24 25 25 25
13 13 13 13 12 11 10 10 10 10 11 12 13 14 14 14 15 15 15 16 17 17 19 20 21 21 21 23 23 24 24 24 24 26 26 26 25 25 26 26 27 27 27
13 13 13 13 13 12 11 11 10 10 10 11 12 12 13 13 14 14 14 15 16 17 18 19 19 20 20 21 23 23 24 24 25 26 27 27 26 27 27 27 27 28 29
14 14 14 13 12 12 12 12 11 11 11 11 10 11 11 12 13 13 14 14 15 16 17 18 19 19 20 20 22 23 24 25 25 26 27 28 29 28 29 30 29 29 29
14 14 14 13 13 12 12 13 13 12 12 12 12 12 12 12 12 13 13 13 14 15 16 17 18 19 19 19 21 21 23 24 26 27 27 29 30 30 30 30 30 31 32
15 15 14 14 14 13 13 13 14 14 13 13 12 12 13 12 12 12 12 13 13 14 15 16 18 19 20 20 21 22 23 25 26 28 29 29 28 29 30 31 32 33 34
16 15 15 14 14 14 13 13 13 13 13 13 12 12 12 12 12 12 12 13 13 13 14 16 17 18 20 21 22 23 24 25 27 27 28 28 29 30 31 33 34 34 35
16 17 16 16 17 16 15 14 14 14 13 13 13 13 13 13 13 13 13 14 14 14 15 15 16 17 19 20 21 22 23 25 26 28 28 29 29 31 32 32 33 34 35
18 17 17 17 17 17 16 15 15 15 15 14 15 15 14 14 15 15 15 15 16 16 16 17 18 19 20 21 22 23 24 25 27 28 29 30 30 31 33 33 33 34 35
18 18 18 18 18 17 17 17 16 15 15 16 16 16 16 16 16 16 17 17 17 18 18 19 19 20 21 22 23 24 25 26 27 28 29 30 30 31 32 32 33 34 36
19 20 20 19 19 19 18 18 17 17 17 16 16 16 17 17 17 17 18 18 19 19 20 21 22 23 23 23 23 23 25 26 27 29 29 29 30 31 31 32 34 34 35
21 21 21 21 20 19 19 19 18 17 17 17 17 17 17 18 18 19 19 19 19 19 20 21 22 23 23 23 23 24 25 26 27 27 28 30 31 31 32 33 33 35 36
22 21 21 21 20 19 19 19 18 18 18 17 17 18 18 19 19 20 20 20 20 20 21 22 22 22 23 24 24 25 26 27 28 29 30 30 31 32 34 35 36 38 39
Wind_Direction
265 271 276 274 272 273 281 279 270 265 262 255 250 245 239 235 231 231 233 233 233 234 229 222 220 219 217 214 213 214 215 216 218 221 229 235 237 237 243 250 251 245 251
266 268 270 275 270 270 279 280 270 264 263 258 251 247 243 237 235 235 235 234 233 234 228 224 221 220 219 220 220 222 222 225 228 230 235 240 242 245 253 257 261 257 257
266 268 270 273 271 273 279 279 268 268 263 260 257 249 245 239 237 236 235 233 232 232 228 224 222 222 223 224 226 227 229 233 234 235 240 241 245 248 255 260 264 262 260
264 267 270 272 271 274 279 281 271 272 269 264 260 252 246 240 237 236 234 229 227 228 226 225 224 223 225 227 230 231 233 237 239 238 239 242 246 251 257 262 266 264 263
261 266 268 272 270 273 277 277 273 273 270 266 263 253 248 243 239 238 235 230 227 226 226 228 229 228 228 231 234 235 237 238 238 238 241 243 247 252 257 262 264 265 265
258 264 268 270 269 272 272 270 269 269 269 267 263 254 249 248 244 241 237 233 229 227 227 230 231 232 233 235 237 239 240 240 241 241 244 245 248 252 255 258 262 265 265
258 263 269 268 268 270 271 268 269 271 271 267 262 256 250 251 245 241 238 235 233 231 231 231 233 234 235 237 240 240 242 242 242 243 245 246 248 252 253 256 261 264 265
260 262 266 266 266 266 267 268 269 272 271 264 258 254 249 248 244 243 243 240 237 235 235 236 235 235 238 239 242 242 242 242 242 244 246 247 249 250 253 257 260 263 265
261 262 265 267 266 265 265 266 267 269 267 260 256 255 252 248 247 246 246 240 238 237 239 240 240 240 240 241 245 244 243 242 243 245 246 248 250 252 255 257 259 263 265
258 263 264 263 263 265 265 263 267 270 265 259 259 256 250 248 246 246 244 238 236 235 237 239 240 240 239 242 243 242 243 244 244 245 247 248 251 253 255 258 260 262 264
257 258 258 260 262 266 268 264 267 266 264 259 254 253 250 246 245 247 243 239 238 237 236 237 238 241 241 241 241 241 244 244 244 246 248 248 252 255 258 260 261 263 263
254 255 256 259 265 271 273 269 266 265 265 258 253 251 248 247 248 247 243 241 238 237 236 237 239 241 241 241 241 242 242 243 244 247 249 251 254 256 258 260 262 263 261
249 251 256 261 267 271 276 272 267 268 265 256 253 252 251 251 251 249 246 242 240 238 237 236 238 241 240 240 243 244 245 246 248 249 250 252 255 257 260 262 263 262 261
249 251 256 262 266 270 274 274 269 266 262 256 253 253 251 250 246 246 245 243 242 240 237 236 237 239 239 241 244 246 247 249 250 249 250 253 255 257 259 262 263 263 264
250 251 256 261 263 266 270 272 270 264 263 262 258 253 252 250 247 247 244 243 244 242 239 239 239 239 241 241 243 245 248 250 251 253 254 255 256 258 262 265 266 266 266
252 253 260 263 263 261 264 268 268 266 264 265 261 257 254 251 250 248 247 244 243 243 242 240 239 241 242 245 244 246 248 251 254 255 257 259 258 260 261 265 268 268 268
254 256 262 262 262 260 262 265 269 270 268 268 262 256 255 253 253 253 251 248 248 246 243 242 242 243 244 247 248 248 250 254 257 259 261 262 260 260 263 264 266 268 270
250 253 259 262 263 264 266 268 266 267 268 269 263 258 258 257 257 254 250 250 250 247 247 246 247 248 249 252 254 255 257 259 260 260 262 263 261 261 264 265 266 269 271
252 254 258 261 262 262 265 268 264 264 264 263 263 261 257 256 255 253 251 254 253 252 249 250 250 251 251 255 255 257 260 261 263 264 264 265 265 265 267 267 269 270 273
253 255 256 259 259 261 263 265 267 264 261 260 261 262 262 260 259 255 255 255 255 256 257 255 256 258 258 257 259 261 264 265 266 268 269 270 269 269 270 271 272 273 274
254 254 254 258 260 261 263 265 267 262 260 259 261 263 265 265 263 261 258 258 258 262 264 263 263 266 266 265 264 265 268 268 269 270 272 274 274 275 277 278 278 278 276
252 253 255 258 260 259 260 263 265 262 261 262 262 261 259 261 262 262 263 264 265 267 269 271 271 272 271 271 269 271 273 273 274 274 275 276 276 278 278 279 281 281 281
249 252 255 257 256 257 260 261 262 263 262 261 260 259 259 260 262 262 263 264 267 270 272 274 275 276 275 274 273 274 275 275 276 278 279 279 279 280 281 281 282 283 283
247 251 254 256 256 256 257 259 259 260 261 262 263 261 262 262 262 263 264 266 268 270 272 275 277 277 277 276 276 277 279 279 280 280 280 281 282 282 283 284 284 285 286
250 252 255 256 257 256 258 257 256 258 261 263 264 264 264 263 263 263 264 266 268 269 272 275 277 277 277 276 277 279 280 282 283 283 283 283 283 284 285 288 288 287 288
250 253 255 257 255 256 258 256 256 257 259 261 262 263 264 264 264 264 266 268 270 273 275 275 279 280 280 281 282 282 282 284 285 286 288 288 288 288 289 291 291 290 290
Height
5879 5879 5878 5878 5878 5878 5878 5878 5878 5878 5878 5878 5879 5879 5880 5882 5884 5885 5887 5889 5890 5892 5893 5895 5896 5897 5899 5900 5901 5902 5903 5903 5904 5905 5906 5906 5906 5907 5907 5907 5907 5907 5907
5876 5876 5876 5876 5875 5875 5875 5875 5874 5874 5875 5875 5876 5876 5877 5879 5881 5882 5884 5886 5887 5889 5890 5892 5894 5896 5897 5898 5899 5900 5901 5902 5903 5904 5904 5905 5906 5906 5906 5906 5906 5906 5906
5873 5873 5873 5873 5872 5872 5872 5871 5871 5871 5871 5871 5872 5873 5874 5876 5878 5879 5881 5882 5884 5886 5888 5889 5891 5893 5895 5896 5898 5899 5899 5900 5901 5902 5903 5904 5904 5904 5905 5904 5905 5905 5905
5870 5870 5870 5869 5869 5869 5868 5868 5867 5867 5867 5867 5868 5869 5871 5872 5874 5875 5877 5879 5881 5883 5884 5887 5888 5890 5892 5894 5895 5896 5897 5898 5899 5900 5900 5902 5902 5903 5903 5903 5903 5903 5903
5866 5866 5866 5866 5866 5865 5865 5864 5864 5864 5863 5863 5864 5865 5867 5868 5869 5871 5873 5875 5877 5879 5881 5883 5885 5887 5889 5891 5892 5894 5894 5895 5896 5897 5898 5899 5899 5900 5901 5901 5901 5901 5901
5862 5862 5862 5862 5862 5861 5861 5861 5860 5860 5860 5860 5860 5861 5863 5864 5865 5867 5870 5871 5873 5876 5878 5880 5882 5884 5886 5887 5889 5890 5891 5892 5894 5895 5895 5896 5897 5897 5898 5898 5898 5898 5898
5859 5859 5859 5858 5858 5857 5857 5857 5856 5856 5856 5855 5856 5857 5858 5859 5861 5863 5865 5867 5869 5871 5873 5876 5878 5880 5882 5884 5885 5886 5888 5889 5890 5891 5892 5893 5894 5894 5895 5895 5895 5895 5895
5855 5855 5854 5854 5854 5853 5853 5852 5852 5852 5851 5851 5852 5853 5854 5855 5857 5859 5860 5862 5864 5867 5869 5871 5873 5875 5877 5879 5881 5883 5884 5885 5886 5887 5888 5889 5890 5891 5891 5892 5892 5892 5892
5850 5850 5850 5850 5850 5849 5849 5848 5848 5848 5848 5848 5848 5849 5850 5851 5853 5854 5856 5857 5860 5862 5865 5867 5869 5871 5873 5875 5877 5878 5880 5881 5882 5883 5884 5885 5886 5887 5888 5888 5889 5889 5889
5846 5846 5846 5846 5846 5845 5844 5844 5844 5844 5844 5844 5844 5845 5846 5847 5848 5850 5851 5853 5855 5858 5860 5862 5864 5865 5868 5870 5872 5874 5876 5877 5878 5879 5880 5881 5882 5883 5883 5884 5884 5884 5885
5842 5842 5842 5842 5842 5841 5841 5840 5840 5840 5840 5840 5840 5841 5842 5843 5844 5846 5847 5849 5851 5853 5855 5857 5859 5861 5863 5865 5867 5869 5871 5872 5873 5874 5875 5876 5877 5878 5879 5879 5879 5879 5880
5838 5838 5838 5838 5838 5838 5837 5836 5836 5836 5836 5836 5837 5837 5838 5839 5840 5841 5843 5844 5846 5848 5850 5852 5854 5856 5858 5860 5862 5864 5865 5867 5868 5869 5870 5871 5872 5873 5873 5874 5874 5874 5874
5835 5835 5835 5835 5835 5834 5834 5833 5833 5832 5832 5832 5833 5833 5834 5835 5836 5837 5838 5840 5842 5843 5845 5847 5849 5851 5853 5855 5857 5859 5860 5862 5863 5864 5865 5866 5866 5867 5867 5868 5868 5868 5868
5832 5832 5832 5832 5832 5831 5831 5830 5830 5829 5829 5829 5829 5829 5830 5832 5832 5833 5834 5836 5837 5839 5841 5842 5844 5846 5848 5850 5852 5853 5855 5856 5857 5858 5859 5860 5860 5861 5861 5862 5862 5862 5862
5828 5829 5829 5829 5829 5828 5828 5827 5827 5826 5826 5826 5826 5826 5827 5828 5829 5830 5830 5832 5833 5835 5836 5837 5839 5841 5843 5844 5846 5848 5849 5850 5851 5852 5853 5854 5854 5855 5855 5855 5855 5855 5855
5825 5825 5825 5825 5825 5825 5825 5825 5825 5824 5824 5824 5823 5824 5824 5825 5825 5826 5827 5828 5829 5830 5831 5832 5834 5835 5837 5839 5841 5842 5843 5844 5845 5846 5846 5847 5847 5848 5848 5848 5848 5848 5847
5821 5822 5822 5822 5822 5822 5822 5822 5822 5822 5822 5821 5821 5821 5821 5822 5822 5823 5824 5825 5825 5826 5827 5828 5830 5831 5832 5834 5835 5836 5837 5838 5839 5839 5840 5840 5840 5841 5841 5841 5840 5840 5840
5818 5818 5818 5819 5819 5819 5819 5819 5819 5819 5819 5819 5819 5819 5819 5820 5820 5821 5821 5822 5822 5823 5824 5824 5825 5826 5828 5829 5830 5831 5832 5832 5832 5832 5833 5832 5833 5833 5833 5833 5832 5832 5831
5814 5814 5815 5815 5815 5816 5816 5816 5816 5816 5816 5816 5817 5817 5817 5817 5818 5818 5818 5819 5819 5819 5820 5821 5821 5822 5823 5824 5825 5825 5826 5826 5826 5826 5826 5825 5825 5825 5824 5824 5824 5823 5822
5810 5810 5811 5811 5812 5812 5812 5813 5813 5813 5813 5813 5814 5814 5814 5815 5815 5815 5816 5816 5816 5816 5817 5817 5817 5818 5818 5819 5819 5820 5820 5820 5820 5819 5819 5818 5817 5817 5816 5815 5814 5813 5812
5805 5806 5807 5807 5808 5808 5808 5809 5809 5809 5810 5810 5811 5811 5811 5812 5812 5812 5812 5813 5813 5813 5813 5813 5813 5813 5814 5814 5814 5814 5814 5814 5813 5812 5811 5810 5810 5809 5808 5807 5805 5804 5802
5801 5801 5802 5803 5803 5804 5804 5805 5805 5806 5806 5807 5807 5808 5808 5808 5809 5809 5809 5809 5809 5809 5809 5809 5809 5809 5809 5808 5808 5808 5807 5807 5806 5805 5804 5803 5802 5801 5799 5798 5796 5794 5792
5796 5796 5797 5797 5798 5799 5800 5801 5801 5802 5802 5802 5803 5803 5804 5804 5804 5805 5805 5805 5805 5805 5805 5805 5804 5804 5803 5802 5802 5801 5800 5800 5799 5798 5797 5795 5794 5793 5791 5789 5787 5785 5783
5791 5792 5792 5793 5794 5794 5795 5796 5797 5797 5798 5798 5798 5798 5799 5799 5800 5800 5800 5801 5800 5800 5800 5799 5799 5798 5797 5796 5795 5794 5793 5793 5792 5790 5789 5787 5786 5784 5782 5780 5777 5775 5772
5785 5786 5787 5788 5789 5790 5791 5791 5792 5793 5793 5794 5794 5794 5794 5795 5795 5795 5795 5795 5795 5795 5795 5794 5793 5792 5791 5790 5789 5788 5787 5786 5784 5782 5781 5779 5777 5775 5773 5770 5768 5765 5762
5780 5781 5782 5783 5784 5785 5786 5786 5787 5788 5788 5789 5789 5789 5790 5790 5790 5790 5790 5789 5789 5789 5789 5788 5787 5785 5784 5783 5782 5781 5780 5778 5777 5775 5773 5771 5768 5766 5763 5760 5757 5754 5751